Погода в Заводоуковске

Россия / Тюменская область     56°30′31″N   66°32′21″E
темп.,
°C
ветер,
м/с
пор.,
м/с
влажн.,
%
обл.,
%
осадки,
мм/ч
давл.,
гПа
погр.,
м
12 апреля, пн
пн1223:00+3ююз5138150 0.0 1034303
02:00+3юз5138780 0.0 1033281
05:00+2юз499368 0.0 1033185
08:00+5юз3690100 0.0 1032168
11:00+6з3695100 0.1 1033195
14:00+9зсз368998 0.0 1033549
17:00+11сз4764100 0.1 1034374
20:00+7сз3683100 0.0 1036102
13 апреля, вт
вт1323:00+5ссз22840 0.0 103832
02:00+3с22800 0.0 103919
05:00+2ссз11780 0.0 104010
08:00+5сз23710 0.0 1041162
11:00+9з34480 0.0 1041746
14:00+11зсз343849 0.0 10401067
17:00+12з45400 0.0 1039841
20:00+8зюз336350 0.0 103830
14 апреля, ср
ср1423:00+6юз367413 0.0 1037103
02:00+5юз41181100 0.0 1035195
05:00+5юз41283100 0.0 1034268
08:00+7юз5137767 0.0 1032385
11:00+13зюз69625 0.0 1030616
14:00+17з68567 0.0 10291160
17:00+17з575694 0.0 10271103
20:00+13зюз387646 0.0 1027127
15 апреля, чт
чт1523:00+10зюз34885 0.0 102650
02:00+9юз369129 0.0 102596
05:00+8зюз239342 0.0 102540
08:00+11зюз36805 0.0 1024211
11:00+16з575427 0.0 10221055
14:00+19з67395 0.0 10211411
17:00+18з57425 0.0 10191379
20:00+14зюз37665 0.0 1018103
16 апреля, пт
пт1623:00+12юз377824 0.0 1017105
02:00+10юз368771 0.0 1016110
05:00+10юз228951 0.1 101529
08:00+12з118039 0.0 1014159
11:00+15зсз116575 0.1 1013648
14:00+18с235189 0.3 10111627
17:00+17св4355100 0.4 1009583
20:00+12всв51072100 0.1 1009469